Location: *
(34.6780°N, 135.8310°E)
Time: 19:31:30
(UTC+00:00)

CZ-4B R/B - Pass Details

Date: 18 October 2019
Orbit: 486 x 653 km, 97.8° (Epoch: 20 November)

Event Time Altitude Azimuth Distance (km) Brightness Sun altitude
Rises 19:11:25 0° 18° (NNE) 2,765 6.7 -24.1°
Reaches altitude 10° 19:13:40 10° 23° (NNE) 1,836 5.8 -23.6°
Maximum altitude 19:17:31 50° 99° (E) 684 3.6 -22.8°
Drops below altitude 10° 19:21:09 10° 176° (S) 1,736 5.4 -22.1°
Sets 19:23:14 0° 182° (S) 2,597 6.2 -21.6°
